Time,TemperatureF,DewpointF,PressureIn,WindDirection,WindDirectionDegrees,WindSpeedMPH,WindSpeedGustMPH,Humidity,HourlyPrecipIn,Conditions,Clouds,dailyrainin,SoftwareType,DateUTC
2013-09-22 00:01:00,53.2,52.4,29.94,WNW,284,0.0,0.0,97,0.00,,---,0.00,VWS V13.01,2013-09-22 04:01:00,
2013-09-22 00:02:00,53.0,52.2,29.94,WNW,284,0.0,0.0,97,0.00,,---,0.00,VWS V13.01,2013-09-22 04:02:00,
2013-09-22 00:03:00,52.9,52.1,29.94,WNW,284,0.0,0.0,97,0.00,,---,0.00,VWS V13.01,2013-09-22 04:03:00,
2013-09-22 00:06:00,52.8,52.0,29.94,WNW,284,0.0,0.0,97,0.00,,---,0.00,VWS V13.01,2013-09-22 04:06:00,
2013-09-22 00:12:00,52.7,51.9,29.94,WNW,284,0.0,0.0,97,0.00,,---,0.00,VWS V13.01,2013-09-22 04:12:00,
2013-09-22 00:17:00,52.5,51.7,29.94,WNW,284,0.0,0.0,97,0.00,,---,0.00,VWS V13.01,2013-09-22 04:17:00,
2013-09-22 00:22:00,52.3,51.5,29.94,WNW,284,0.0,0.0,97,0.00,,---,0.00,VWS V13.01,2013-09-22 04:22:00,
2013-09-22 00:27:00,52.0,51.2,29.94,WNW,284,0.0,0.0,97,0.00,,---,0.00,VWS V13.01,2013-09-22 04:27:00,
2013-09-22 00:32:00,51.8,51.0,29.94,WNW,284,0.0,0.0,97,0.00,,---,0.00,VWS V13.01,2013-09-22 04:32:00,
2013-09-22 00:37:00,51.5,50.7,29.93,WNW,284,0.0,0.0,97,0.00,,---,0.00,VWS V13.01,2013-09-22 04:37:00,
2013-09-22 00:42:00,51.1,50.3,29.93,WNW,284,0.0,0.0,97,0.00,,---,0.00,VWS V13.01,2013-09-22 04:42:00,
2013-09-22 00:47:00,50.8,50.0,29.94,WNW,284,0.0,0.0,97,0.00,,---,0.00,VWS V13.01,2013-09-22 04:47:00,
2013-09-22 00:52:00,50.5,49.7,29.94,WNW,284,0.0,0.0,97,0.00,,---,0.00,VWS V13.01,2013-09-22 04:52:00,
2013-09-22 00:57:00,50.1,49.3,29.95,WNW,284,0.0,0.0,97,0.00,,---,0.00,VWS V13.01,2013-09-22 04:57:00,
2013-09-22 01:02:00,50.6,49.8,29.95,WNW,284,0.0,0.0,97,0.00,,---,0.00,VWS V13.01,2013-09-22 05:02:00,
2013-09-22 01:07:00,51.1,50.3,29.95,WNW,284,0.0,0.0,97,0.00,,---,0.00,VWS V13.01,2013-09-22 05:07:00,
2013-09-22 01:12:00,51.3,50.5,29.95,WNW,284,0.0,0.0,97,0.00,,---,0.00,VWS V13.01,2013-09-22 05:12:00,
2013-09-22 01:18:00,51.4,-90.3,29.96,WNW,284,0.0,0.0,98,0.00,,---,0.00,VWS V13.01,2013-09-22 05:18:00,
2013-09-22 01:23:00,51.4,-90.3,29.97,WNW,284,0.0,0.0,98,0.00,,---,0.00,VWS V13.01,2013-09-22 05:23:00,
2013-09-22 01:28:00,51.4,-90.3,29.97,WNW,284,1.0,1.0,98,0.00,,---,0.00,VWS V13.01,2013-09-22 05:28:00,
2013-09-22 01:33:00,51.4,-90.3,29.97,WNW,284,0.0,0.0,98,0.00,,---,0.00,VWS V13.01,2013-09-22 05:33:00,
2013-09-22 01:38:00,51.4,-90.3,29.98,WNW,284,0.0,0.0,98,0.00,,---,0.00,VWS V13.01,2013-09-22 05:38:00,
2013-09-22 01:43:00,51.4,-90.3,29.98,WNW,284,0.0,0.0,98,0.00,,---,0.00,VWS V13.01,2013-09-22 05:43:00,
2013-09-22 01:48:00,51.4,-90.3,29.99,WNW,284,0.0,1.0,98,0.00,,---,0.00,VWS V13.01,2013-09-22 05:48:00,
2013-09-22 01:53:00,51.4,-90.3,29.99,WNW,284,0.0,1.0,98,0.00,,---,0.00,VWS V13.01,2013-09-22 05:53:00,
2013-09-22 01:59:00,51.4,-90.3,29.99,WNW,284,0.0,1.0,98,0.00,,---,0.00,VWS V13.01,2013-09-22 05:59:00,
2013-09-22 02:04:00,51.4,-90.3,30.00,WNW,284,0.0,0.0,98,0.00,,---,0.00,VWS V13.01,2013-09-22 06:04:00,
2013-09-22 02:09:00,51.4,-90.3,30.01,WNW,284,0.0,0.0,98,0.00,,---,0.00,VWS V13.01,2013-09-22 06:09:00,
2013-09-22 02:14:00,51.4,-90.3,30.01,WNW,284,0.0,0.0,98,0.00,,---,0.00,VWS V13.01,2013-09-22 06:14:00,
2013-09-22 02:19:00,51.4,-90.3,30.02,WNW,284,0.0,0.0,98,0.00,,---,0.00,VWS V13.01,2013-09-22 06:19:00,
2013-09-22 02:24:00,51.4,-90.3,30.03,WNW,284,0.0,1.0,98,0.00,,---,0.00,VWS V13.01,2013-09-22 06:24:00,
2013-09-22 02:29:00,51.4,-90.3,30.03,WNW,284,0.0,1.0,98,0.00,,---,0.00,VWS V13.01,2013-09-22 06:29:00,
2013-09-22 02:34:00,51.4,-90.3,30.04,WNW,284,0.0,0.0,98,0.00,,---,0.00,VWS V13.01,2013-09-22 06:34:00,
2013-09-22 02:40:00,51.4,-90.3,30.04,WNW,284,0.0,0.0,98,0.00,,---,0.00,VWS V13.01,2013-09-22 06:40:00,
2013-09-22 02:45:00,51.4,-90.3,30.05,WNW,284,0.0,0.0,98,0.00,,---,0.00,VWS V13.01,2013-09-22 06:45:00,
2013-09-22 02:50:00,51.4,-90.3,30.05,WNW,284,0.0,0.0,98,0.00,,---,0.00,VWS V13.01,2013-09-22 06:50:00,
2013-09-22 02:55:00,51.4,-90.3,30.05,WNW,284,0.0,1.0,98,0.00,,---,0.00,VWS V13.01,2013-09-22 06:55:00,
2013-09-22 03:00:00,51.4,-90.3,30.05,WNW,284,0.0,0.0,98,0.00,,---,0.00,VWS V13.01,2013-09-22 07:00:00,
2013-09-22 03:05:00,51.4,-90.3,30.07,WNW,284,0.0,0.0,98,0.00,,---,0.00,VWS V13.01,2013-09-22 07:05:00,
2013-09-22 03:10:00,51.4,-90.3,30.07,WNW,284,0.0,0.0,98,0.00,,---,0.00,VWS V13.01,2013-09-22 07:10:00,
2013-09-22 03:15:00,51.4,-90.3,30.08,WNW,284,5.0,5.0,98,0.00,,---,0.00,VWS V13.01,2013-09-22 07:15:00,
2013-09-22 03:20:00,51.4,-90.3,30.09,WNW,284,5.0,5.0,98,0.00,,---,0.00,VWS V13.01,2013-09-22 07:20:00,
2013-09-22 03:25:00,51.4,-90.3,30.10,WNW,284,0.0,6.0,98,0.00,,---,0.00,VWS V13.01,2013-09-22 07:25:00,
2013-09-22 03:30:00,51.4,-90.3,30.10,WNW,284,0.0,0.0,98,0.00,,---,0.00,VWS V13.01,2013-09-22 07:30:00,
2013-09-22 03:35:00,51.4,-90.3,30.10,WNW,284,0.0,1.0,98,0.00,,---,0.00,VWS V13.01,2013-09-22 07:35:00,
2013-09-22 03:40:00,51.4,-90.3,30.11,WNW,284,0.0,1.0,98,0.00,,---,0.00,VWS V13.01,2013-09-22 07:40:00,
2013-09-22 03:45:00,51.4,-90.3,30.12,WNW,284,0.0,1.0,98,0.00,,---,0.00,VWS V13.01,2013-09-22 07:45:00,
2013-09-22 03:51:00,51.4,-90.3,30.12,WNW,284,0.0,1.0,98,0.00,,---,0.00,VWS V13.01,2013-09-22 07:51:00,
2013-09-22 03:56:00,51.4,-90.3,30.13,WNW,284,0.0,1.0,98,0.00,,---,0.00,VWS V13.01,2013-09-22 07:56:00,
2013-09-22 04:01:00,51.4,-90.3,30.14,WNW,284,0.0,0.0,98,0.00,,---,0.00,VWS V13.01,2013-09-22 08:01:00,
2013-09-22 04:06:00,51.4,-90.3,30.14,WNW,284,0.0,0.0,98,0.00,,---,0.00,VWS V13.01,2013-09-22 08:06:00,
2013-09-22 04:11:00,51.4,-90.3,30.15,WNW,284,0.0,1.0,98,0.00,,---,0.00,VWS V13.01,2013-09-22 08:11:00,
2013-09-22 04:16:00,51.4,-90.3,30.16,WNW,284,0.0,1.0,98,0.00,,---,0.00,VWS V13.01,2013-09-22 08:16:00,
2013-09-22 04:22:00,51.4,-90.3,30.16,WNW,284,0.0,1.0,98,0.00,,---,0.00,VWS V13.01,2013-09-22 08:22:00,
2013-09-22 04:27:00,51.4,-90.3,30.17,WNW,284,0.0,1.0,98,0.00,,---,0.00,VWS V13.01,2013-09-22 08:27:00,
2013-09-22 04:32:00,51.4,-90.3,30.18,WNW,284,0.0,5.0,98,0.00,,---,0.00,VWS V13.01,2013-09-22 08:32:00,
2013-09-22 04:37:00,51.4,-90.3,30.18,WNW,284,0.0,5.0,98,0.00,,---,0.00,VWS V13.01,2013-09-22 08:37:00,
2013-09-22 04:42:00,51.4,-90.3,30.19,WNW,284,0.0,5.0,98,0.00,,---,0.00,VWS V13.01,2013-09-22 08:42:00,
2013-09-22 04:47:00,51.4,-90.3,30.20,WNW,284,0.0,5.0,98,0.00,,---,0.00,VWS V13.01,2013-09-22 08:47:00,
2013-09-22 04:52:00,51.4,-90.3,30.20,WNW,284,0.0,5.0,98,0.00,,---,0.00,VWS V13.01,2013-09-22 08:52:00,
2013-09-22 04:57:00,51.4,-90.3,30.21,WNW,284,0.0,5.0,98,0.00,,---,0.00,VWS V13.01,2013-09-22 08:57:00,
2013-09-22 05:02:00,51.4,-90.3,30.21,WNW,284,0.0,0.0,98,0.00,,---,0.00,VWS V13.01,2013-09-22 09:02:00,
2013-09-22 05:07:00,51.4,-90.3,30.22,WNW,284,0.0,0.0,98,0.00,,---,0.00,VWS V13.01,2013-09-22 09:07:00,
2013-09-22 05:12:00,51.4,-90.3,30.23,WNW,284,0.0,0.0,98,0.00,,---,0.00,VWS V13.01,2013-09-22 09:12:00,
2013-09-22 05:17:00,51.4,-90.3,30.24,WNW,284,0.0,1.0,98,0.00,,---,0.00,VWS V13.01,2013-09-22 09:17:00,
2013-09-22 05:22:00,51.4,-90.3,30.24,WNW,284,0.0,1.0,98,0.00,,---,0.00,VWS V13.01,2013-09-22 09:22:00,
2013-09-22 05:27:00,51.4,-90.3,30.25,WNW,284,0.0,1.0,98,0.00,,---,0.00,VWS V13.01,2013-09-22 09:27:00,
2013-09-22 05:32:00,51.4,-90.3,30.25,WNW,284,0.0,0.0,98,0.00,,---,0.00,VWS V13.01,2013-09-22 09:32:00,
2013-09-22 05:37:00,51.4,-90.3,30.26,WNW,284,0.0,1.0,98,0.00,,---,0.00,VWS V13.01,2013-09-22 09:37:00,
2013-09-22 05:42:00,51.4,-90.3,30.26,WNW,284,0.0,1.0,98,0.00,,---,0.00,VWS V13.01,2013-09-22 09:42:00,
2013-09-22 05:48:00,51.4,-90.3,30.27,WNW,284,0.0,1.0,98,0.00,,---,0.00,VWS V13.01,2013-09-22 09:48:00,
2013-09-22 05:53:00,51.4,-90.3,30.27,WNW,284,0.0,1.0,98,0.00,,---,0.00,VWS V13.01,2013-09-22 09:53:00,
2013-09-22 05:58:00,51.4,-90.3,30.28,WNW,284,0.0,1.0,98,0.00,,---,0.00,VWS V13.01,2013-09-22 09:58:00,
2013-09-22 06:03:00,51.4,-90.3,30.29,WNW,284,0.0,0.0,98,0.00,,---,0.00,VWS V13.01,2013-09-22 10:03:00,
2013-09-22 06:08:00,51.4,-90.3,30.30,WNW,284,0.0,0.0,98,0.00,,---,0.00,VWS V13.01,2013-09-22 10:08:00,
2013-09-22 06:13:00,51.4,-90.3,30.30,WNW,284,0.0,0.0,98,0.00,,---,0.00,VWS V13.01,2013-09-22 10:13:00,
2013-09-22 06:18:00,51.4,-90.3,30.30,WNW,284,0.0,0.0,98,0.00,,---,0.00,VWS V13.01,2013-09-22 10:18:00,
2013-09-22 06:23:00,51.4,-90.3,30.31,WNW,284,0.0,0.0,98,0.00,,---,0.00,VWS V13.01,2013-09-22 10:23:00,
2013-09-22 06:28:00,51.4,-90.3,30.31,WNW,284,0.0,0.0,98,0.00,,---,0.00,VWS V13.01,2013-09-22 10:28:00,
2013-09-22 06:33:00,51.4,-90.3,30.31,WNW,284,0.0,0.0,98,0.00,,---,0.00,VWS V13.01,2013-09-22 10:33:00,
2013-09-22 06:39:00,51.4,-90.3,30.32,WNW,284,0.0,0.0,98,0.00,,---,0.00,VWS V13.01,2013-09-22 10:39:00,
2013-09-22 06:44:00,51.4,-90.3,30.32,WNW,284,0.0,0.0,98,0.00,,---,0.00,VWS V13.01,2013-09-22 10:44:00,
2013-09-22 06:49:00,51.4,-90.3,30.33,WNW,284,0.0,0.0,98,0.00,,---,0.00,VWS V13.01,2013-09-22 10:49:00,
2013-09-22 07:03:00,51.4,-90.3,30.33,WNW,284,0.0,0.0,98,0.00,,---,0.00,VWS V13.01,2013-09-22 11:03:00,
2013-09-22 07:08:00,51.4,-90.3,30.33,WNW,284,0.0,0.0,98,0.00,,---,0.00,VWS V13.01,2013-09-22 11:08:00,
2013-09-22 07:14:00,51.4,-90.3,30.34,WNW,284,0.0,0.0,98,0.00,,---,0.00,VWS V13.01,2013-09-22 11:14:00,
2013-09-22 07:19:00,51.4,-90.3,30.34,WNW,284,0.0,1.0,98,0.00,,---,0.00,VWS V13.01,2013-09-22 11:19:00,
2013-09-22 07:24:00,51.4,-90.3,30.34,WNW,284,0.0,1.0,98,0.00,,---,0.00,VWS V13.01,2013-09-22 11:24:00,
2013-09-22 07:29:00,51.4,-90.3,30.34,WNW,284,0.0,1.0,98,0.00,,---,0.00,VWS V13.01,2013-09-22 11:29:00,
2013-09-22 07:34:00,51.4,-90.3,30.35,WNW,284,0.0,0.0,98,0.00,,---,0.00,VWS V13.01,2013-09-22 11:34:00,
2013-09-22 07:39:00,51.4,-90.3,30.35,WNW,284,0.0,0.0,98,0.00,,---,0.00,VWS V13.01,2013-09-22 11:39:00,
2013-09-22 07:44:00,51.4,-90.3,30.34,WNW,284,0.0,0.0,98,0.00,,---,0.00,VWS V13.01,2013-09-22 11:44:00,
2013-09-22 07:50:00,51.4,-90.3,30.35,WNW,284,0.0,0.0,98,0.00,,---,0.00,VWS V13.01,2013-09-22 11:50:00,
2013-09-22 07:55:00,51.4,-90.3,30.36,WNW,284,0.0,0.0,98,0.00,,---,0.00,VWS V13.01,2013-09-22 11:55:00,
2013-09-22 08:00:00,51.4,-90.3,30.36,WNW,284,0.0,0.0,98,0.00,,---,0.00,VWS V13.01,2013-09-22 12:00:00,
2013-09-22 08:05:00,51.4,-90.3,30.36,WNW,284,0.0,0.0,98,0.00,,---,0.00,VWS V13.01,2013-09-22 12:05:00,
2013-09-22 08:10:00,51.4,-90.3,30.36,WNW,284,4.0,7.0,98,0.00,,---,0.00,VWS V13.01,2013-09-22 12:10:00,
2013-09-22 08:16:00,51.4,-90.3,30.36,WNW,284,4.0,7.0,98,0.00,,---,0.00,VWS V13.01,2013-09-22 12:16:00,
2013-09-22 08:21:00,51.4,-90.3,30.36,West,271,4.0,8.0,98,0.00,,---,0.00,VWS V13.01,2013-09-22 12:21:00,
2013-09-22 08:26:00,50.2,49.7,30.36,West,271,0.0,8.0,98,0.00,,---,0.00,VWS V13.01,2013-09-22 12:26:00,
2013-09-22 08:31:00,50.4,48.7,30.36,West,271,0.0,0.0,94,0.00,,---,0.00,VWS V13.01,2013-09-22 12:31:00,
2013-09-22 08:36:00,50.5,48.8,30.35,West,271,5.0,6.0,94,0.00,,---,0.00,VWS V13.01,2013-09-22 12:36:00,
2013-09-22 08:41:00,50.7,48.8,30.35,West,271,0.0,8.0,93,0.00,,---,0.00,VWS V13.01,2013-09-22 12:41:00,
2013-09-22 08:46:00,50.8,48.6,30.35,West,271,5.0,8.0,92,0.00,,---,0.00,VWS V13.01,2013-09-22 12:46:00,
2013-09-22 08:51:00,50.9,48.7,30.36,West,271,0.0,8.0,92,0.00,,---,0.00,VWS V13.01,2013-09-22 12:51:00,
2013-09-22 08:56:00,50.9,48.4,30.36,West,271,4.0,8.0,91,0.00,,---,0.00,VWS V13.01,2013-09-22 12:56:00,
2013-09-22 09:01:00,50.9,48.1,30.36,West,279,4.0,6.0,90,0.00,,---,0.00,VWS V13.01,2013-09-22 13:01:00,
2013-09-22 09:06:00,50.9,47.8,30.35,West,281,0.0,6.0,89,0.00,,---,0.00,VWS V13.01,2013-09-22 13:06:00,
2013-09-22 09:11:00,51.1,48.0,30.36,WNW,286,7.0,7.0,89,0.00,,---,0.00,VWS V13.01,2013-09-22 13:11:00,
2013-09-22 09:16:00,51.5,48.7,30.36,WNW,286,0.0,7.0,90,0.00,,---,0.00,VWS V13.01,2013-09-22 13:16:00,
2013-09-22 09:21:00,51.7,48.6,30.35,WNW,286,0.0,7.0,89,0.00,,---,0.00,VWS V13.01,2013-09-22 13:21:00,
2013-09-22 09:27:00,52.2,49.1,30.35,WNW,286,0.0,7.0,89,0.00,,---,0.00,VWS V13.01,2013-09-22 13:27:00,
2013-09-22 09:32:00,52.5,49.0,30.35,WNW,286,0.0,0.0,88,0.00,,---,0.00,VWS V13.01,2013-09-22 13:32:00,
2013-09-22 09:37:00,52.7,49.0,30.35,WNW,292,0.0,5.0,87,0.00,,---,0.00,VWS V13.01,2013-09-22 13:37:00,
2013-09-22 09:42:00,52.8,48.7,30.35,NW,310,0.0,9.0,86,0.01,,---,0.01,VWS V13.01,2013-09-22 13:42:00,
2013-09-22 09:47:00,52.5,48.1,30.35,NW,310,8.0,9.0,85,0.01,,---,0.01,VWS V13.01,2013-09-22 13:47:00,
2013-09-22 09:52:00,52.6,48.2,30.35,North,355,5.0,12.0,85,0.01,,---,0.01,VWS V13.01,2013-09-22 13:52:00,
2013-09-22 09:57:00,52.5,47.8,30.36,NW,304,0.0,12.0,84,0.01,,---,0.01,VWS V13.01,2013-09-22 13:57:00,
2013-09-22 10:02:00,52.6,47.6,30.36,NNW,348,1.0,9.0,83,0.01,,---,0.01,VWS V13.01,2013-09-22 14:02:00,
2013-09-22 10:07:00,52.7,47.4,30.36,NW,308,2.0,9.0,82,0.01,,---,0.01,VWS V13.01,2013-09-22 14:07:00,
2013-09-22 10:12:00,52.8,47.5,30.36,NW,316,0.0,9.0,82,0.01,,---,0.01,VWS V13.01,2013-09-22 14:12:00,
2013-09-22 10:17:00,52.9,47.2,30.36,NW,319,5.0,9.0,81,0.01,,---,0.01,VWS V13.01,2013-09-22 14:17:00,
2013-09-22 10:22:00,52.9,47.9,30.36,WNW,303,6.0,9.0,83,0.01,,---,0.01,VWS V13.01,2013-09-22 14:22:00,
2013-09-22 10:27:00,53.3,48.3,30.37,WNW,303,0.0,9.0,83,0.01,,---,0.01,VWS V13.01,2013-09-22 14:27:00,
2013-09-22 10:32:00,53.3,48.3,30.37,West,267,4.0,8.0,83,0.01,,---,0.01,VWS V13.01,2013-09-22 14:32:00,
2013-09-22 10:37:00,53.5,48.5,30.37,WNW,292,0.0,8.0,83,0.01,,---,0.01,VWS V13.01,2013-09-22 14:37:00,
2013-09-22 10:42:00,53.6,48.2,30.37,NNE,26,0.0,8.0,82,0.01,,---,0.01,VWS V13.01,2013-09-22 14:42:00,
2013-09-22 10:47:00,53.6,47.9,30.37,NE,34,0.0,8.0,81,0.01,,---,0.01,VWS V13.01,2013-09-22 14:47:00,
2013-09-22 10:53:00,53.6,47.9,30.37,NNE,16,4.0,9.0,81,0.01,,---,0.01,VWS V13.01,2013-09-22 14:53:00,
2013-09-22 10:58:00,53.2,47.2,30.37,NNW,348,0.0,9.0,80,0.01,,---,0.01,VWS V13.01,2013-09-22 14:58:00,
2013-09-22 11:03:00,53.1,47.1,30.37,North,360,0.0,6.0,80,0.00,,---,0.01,VWS V13.01,2013-09-22 15:03:00,
2013-09-22 11:08:00,53.6,47.9,30.37,NE,50,6.0,7.0,81,0.00,,---,0.01,VWS V13.01,2013-09-22 15:08:00,
2013-09-22 11:13:00,53.7,47.7,30.37,NNW,338,0.0,9.0,80,0.00,,---,0.01,VWS V13.01,2013-09-22 15:13:00,
2013-09-22 11:18:00,53.6,47.3,30.38,NW,309,0.0,9.0,79,0.00,,---,0.01,VWS V13.01,2013-09-22 15:18:00,
2013-09-22 11:23:00,53.4,47.1,30.38,North,355,0.0,9.0,79,0.00,,---,0.01,VWS V13.01,2013-09-22 15:23:00,
2013-09-22 11:28:00,53.4,47.7,30.38,NW,310,0.0,9.0,81,0.00,,---,0.01,VWS V13.01,2013-09-22 15:28:00,
2013-09-22 11:33:00,53.4,47.1,30.38,WNW,294,3.0,8.0,79,0.00,,---,0.01,VWS V13.01,2013-09-22 15:33:00,
2013-09-22 11:38:00,53.5,47.5,30.38,WNW,299,0.0,8.0,80,0.00,,---,0.01,VWS V13.01,2013-09-22 15:38:00,
2013-09-22 11:43:00,54.4,48.0,30.38,WNW,295,0.0,8.0,79,0.00,,---,0.01,VWS V13.01,2013-09-22 15:43:00,
2013-09-22 11:48:00,54.5,47.8,30.38,WNW,296,0.0,8.0,78,0.00,,---,0.01,VWS V13.01,2013-09-22 15:48:00,
2013-09-22 11:53:00,54.9,48.9,30.38,WNW,295,0.0,8.0,80,0.00,,---,0.01,VWS V13.01,2013-09-22 15:53:00,
2013-09-22 11:58:00,55.5,48.1,30.38,NW,325,0.0,8.0,76,0.00,,---,0.01,VWS V13.01,2013-09-22 15:58:00,
2013-09-22 12:03:00,55.5,47.4,30.38,West,271,0.0,9.0,74,0.00,,---,0.01,VWS V13.01,2013-09-22 16:03:00,
2013-09-22 12:08:00,56.0,46.7,30.38,West,265,5.0,13.0,71,0.00,,---,0.01,VWS V13.01,2013-09-22 16:08:00,
2013-09-22 12:13:00,56.0,46.4,30.38,West,274,2.0,13.0,70,0.00,,---,0.01,VWS V13.01,2013-09-22 16:13:00,
2013-09-22 12:19:00,55.7,46.5,30.38,WNW,298,0.0,14.0,71,0.00,,---,0.01,VWS V13.01,2013-09-22 16:19:00,
2013-09-22 12:24:00,55.3,46.1,30.38,NNW,330,0.0,14.0,71,0.00,,---,0.01,VWS V13.01,2013-09-22 16:24:00,
2013-09-22 12:29:00,55.2,46.7,30.38,NNW,327,0.0,14.0,73,0.00,,---,0.01,VWS V13.01,2013-09-22 16:29:00,
2013-09-22 12:34:00,55.7,46.8,30.38,West,263,9.0,10.0,72,0.00,,---,0.01,VWS V13.01,2013-09-22 16:34:00,
2013-09-22 12:39:00,55.5,46.3,30.38,West,277,0.0,11.0,71,0.00,,---,0.01,VWS V13.01,2013-09-22 16:39:00,
2013-09-22 12:44:00,55.3,46.4,30.38,WNW,286,0.0,11.0,72,0.00,,---,0.01,VWS V13.01,2013-09-22 16:44:00,
2013-09-22 12:49:00,55.3,46.8,30.39,WNW,303,0.0,11.0,73,0.00,,---,0.01,VWS V13.01,2013-09-22 16:49:00,
2013-09-22 12:54:00,55.6,47.1,30.39,WNW,303,0.0,11.0,73,0.00,,---,0.01,VWS V13.01,2013-09-22 16:54:00,
2013-09-22 12:59:00,55.5,45.9,30.39,West,265,13.0,13.0,70,0.00,,---,0.01,VWS V13.01,2013-09-22 16:59:00,
2013-09-22 13:04:00,55.0,46.2,30.39,WNW,288,6.0,14.0,72,0.00,,---,0.01,VWS V13.01,2013-09-22 17:04:00,
2013-09-22 13:09:00,54.8,46.0,30.38,NW,310,0.0,14.0,72,0.00,,---,0.01,VWS V13.01,2013-09-22 17:09:00,
2013-09-22 13:14:00,55.0,46.5,30.38,NW,307,2.0,14.0,73,0.00,,---,0.01,VWS V13.01,2013-09-22 17:14:00,
2013-09-22 13:19:00,55.3,47.5,30.38,WNW,296,5.0,14.0,75,0.00,,---,0.01,VWS V13.01,2013-09-22 17:19:00,
2013-09-22 13:24:00,55.4,47.3,30.37,NW,312,6.0,14.0,74,0.00,,---,0.01,VWS V13.01,2013-09-22 17:24:00,
2013-09-22 13:29:00,55.4,47.3,30.36,NW,314,0.0,14.0,74,0.00,,---,0.01,VWS V13.01,2013-09-22 17:29:00,
2013-09-22 13:35:00,55.7,46.8,30.36,NNW,331,0.0,9.0,72,0.00,,---,0.01,VWS V13.01,2013-09-22 17:35:00,
2013-09-22 13:40:00,56.2,46.2,30.36,WNW,289,6.0,13.0,69,0.00,,---,0.01,VWS V13.01,2013-09-22 17:40:00,
2013-09-22 13:45:00,56.3,46.3,30.35,NW,313,6.0,13.0,69,0.00,,---,0.01,VWS V13.01,2013-09-22 17:45:00,
2013-09-22 13:50:00,56.8,46.8,30.35,NNE,17,5.0,13.0,69,0.00,,---,0.01,VWS V13.01,2013-09-22 17:50:00,
2013-09-22 13:55:00,56.6,46.6,30.35,NNW,334,9.0,14.0,69,0.00,,---,0.01,VWS V13.01,2013-09-22 17:55:00,
2013-09-22 14:00:00,56.3,45.9,30.35,NNW,330,3.0,5.0,68,0.00,,---,0.01,VWS V13.01,2013-09-22 18:00:00,
2013-09-22 14:05:00,56.1,46.1,30.34,NNE,30,0.0,9.0,69,0.00,,---,0.01,VWS V13.01,2013-09-22 18:05:00,
2013-09-22 14:10:00,56.1,46.1,30.34,North,355,0.0,12.0,69,0.00,,---,0.01,VWS V13.01,2013-09-22 18:10:00,
2013-09-22 14:16:00,56.4,46.4,30.33,NW,323,0.0,12.0,69,0.00,,---,0.01,VWS V13.01,2013-09-22 18:16:00,
2013-09-22 14:21:00,56.4,46.0,30.33,NW,311,0.0,12.0,68,0.00,,---,0.01,VWS V13.01,2013-09-22 18:21:00,
2013-09-22 14:26:00,55.9,46.3,30.32,NW,310,0.0,12.0,70,0.00,,---,0.01,VWS V13.01,2013-09-22 18:26:00,
2013-09-22 14:31:00,55.5,45.5,30.32,West,272,3.0,7.0,69,0.00,,---,0.01,VWS V13.01,2013-09-22 18:31:00,
2013-09-22 14:36:00,55.4,46.2,30.31,WNW,303,0.0,8.0,71,0.00,,---,0.01,VWS V13.01,2013-09-22 18:36:00,
2013-09-22 14:41:00,55.7,46.5,30.31,WNW,300,0.0,8.0,71,0.00,,---,0.01,VWS V13.01,2013-09-22 18:41:00,
2013-09-22 14:47:00,55.6,46.0,30.31,NW,311,5.0,10.0,70,0.00,,---,0.01,VWS V13.01,2013-09-22 18:47:00,
2013-09-22 14:52:00,55.3,45.7,30.31,WNW,284,0.0,10.0,70,0.00,,---,0.01,VWS V13.01,2013-09-22 18:52:00,
2013-09-22 14:57:00,55.4,46.2,30.30,NW,310,2.0,10.0,71,0.00,,---,0.01,VWS V13.01,2013-09-22 18:57:00,
2013-09-22 15:02:00,55.6,45.6,30.30,North,355,6.0,7.0,69,0.00,,---,0.01,VWS V13.01,2013-09-22 19:02:00,
2013-09-22 15:07:00,55.8,46.2,30.29,WNW,284,0.0,7.0,70,0.00,,---,0.01,VWS V13.01,2013-09-22 19:07:00,
2013-09-22 15:12:00,56.0,46.0,30.28,NW,306,0.0,9.0,69,0.00,,---,0.01,VWS V13.01,2013-09-22 19:12:00,
2013-09-22 15:17:00,56.0,46.0,30.28,NW,306,0.0,9.0,69,0.00,,---,0.01,VWS V13.01,2013-09-22 19:17:00,
2013-09-22 15:22:00,56.0,46.4,30.27,NE,54,5.0,9.0,70,0.00,,---,0.01,VWS V13.01,2013-09-22 19:22:00,
2013-09-22 15:27:00,55.9,46.3,30.27,NW,319,3.0,9.0,70,0.00,,---,0.01,VWS V13.01,2013-09-22 19:27:00,
2013-09-22 15:32:00,55.7,45.7,30.27,WNW,298,6.0,10.0,69,0.00,,---,0.01,VWS V13.01,2013-09-22 19:32:00,
2013-09-22 15:37:00,55.2,45.2,30.27,NW,322,3.0,13.0,69,0.00,,---,0.01,VWS V13.01,2013-09-22 19:37:00,
2013-09-22 15:42:00,54.9,45.7,30.26,NNW,338,0.0,13.0,71,0.00,,---,0.01,VWS V13.01,2013-09-22 19:42:00,
2013-09-22 15:47:00,54.9,45.7,30.26,NW,306,0.0,13.0,71,0.00,,---,0.01,VWS V13.01,2013-09-22 19:47:00,
2013-09-22 15:53:00,54.9,45.7,30.25,WNW,287,0.0,13.0,71,0.00,,---,0.01,VWS V13.01,2013-09-22 19:53:00,
2013-09-22 15:58:00,59.3,46.7,30.25,WNW,288,0.0,13.0,63,0.00,,---,0.01,VWS V13.01,2013-09-22 19:58:00,
2013-09-22 16:03:00,57.7,46.0,30.25,WNW,288,0.0,1.0,65,0.00,,---,0.01,VWS V13.01,2013-09-22 20:03:00,
2013-09-22 16:08:00,56.1,46.1,30.24,NW,304,5.0,9.0,69,0.00,,---,0.01,VWS V13.01,2013-09-22 20:08:00,
2013-09-22 16:13:00,55.0,45.4,30.23,NW,306,4.0,9.0,70,0.00,,---,0.01,VWS V13.01,2013-09-22 20:13:00,
2013-09-22 16:18:00,54.5,45.3,30.23,NW,317,4.0,9.0,71,0.00,,---,0.01,VWS V13.01,2013-09-22 20:18:00,
2013-09-22 16:23:00,54.4,45.6,30.22,NW,304,0.0,9.0,72,0.00,,---,0.01,VWS V13.01,2013-09-22 20:23:00,
2013-09-22 16:29:00,54.3,45.5,30.22,NW,304,0.0,9.0,72,0.00,,---,0.01,VWS V13.01,2013-09-22 20:29:00,
2013-09-22 16:34:00,54.2,45.0,30.21,NNW,343,0.0,7.0,71,0.00,,---,0.01,VWS V13.01,2013-09-22 20:34:00,
2013-09-22 16:39:00,54.0,45.2,30.20,NNW,344,0.0,7.0,72,0.00,,---,0.01,VWS V13.01,2013-09-22 20:39:00,
2013-09-22 16:44:00,53.9,45.5,30.20,NNE,13,0.0,7.0,73,0.00,,---,0.01,VWS V13.01,2013-09-22 20:44:00,
2013-09-22 16:49:00,53.8,45.7,30.20,North,9,0.0,7.0,74,0.00,,---,0.01,VWS V13.01,2013-09-22 20:49:00,
2013-09-22 16:54:00,53.5,45.4,30.20,North,5,0.0,7.0,74,0.00,,---,0.01,VWS V13.01,2013-09-22 20:54:00,
2013-09-22 16:59:00,53.1,45.0,30.20,North,360,0.0,7.0,74,0.00,,---,0.01,VWS V13.01,2013-09-22 20:59:00,
2013-09-22 17:04:00,52.9,45.2,30.19,North,360,0.0,1.0,75,0.00,,---,0.01,VWS V13.01,2013-09-22 21:04:00,
2013-09-22 17:09:00,52.8,45.5,30.20,North,360,0.0,1.0,76,0.00,,---,0.01,VWS V13.01,2013-09-22 21:09:00,
2013-09-22 17:15:00,52.7,45.4,30.20,NW,325,0.0,5.0,76,0.00,,---,0.01,VWS V13.01,2013-09-22 21:15:00,
2013-09-22 17:20:00,52.6,45.6,30.19,NW,325,0.0,5.0,77,0.00,,---,0.01,VWS V13.01,2013-09-22 21:20:00,
2013-09-22 17:25:00,52.6,45.6,30.19,NW,325,0.0,5.0,77,0.00,,---,0.01,VWS V13.01,2013-09-22 21:25:00,
2013-09-22 17:30:00,52.7,45.7,30.19,NW,325,0.0,0.0,77,0.00,,---,0.01,VWS V13.01,2013-09-22 21:30:00,
2013-09-22 17:35:00,52.6,45.6,30.19,NW,309,0.0,6.0,77,0.00,,---,0.01,VWS V13.01,2013-09-22 21:35:00,
2013-09-22 17:40:00,52.5,45.5,30.19,NW,308,0.0,6.0,77,0.00,,---,0.01,VWS V13.01,2013-09-22 21:40:00,
2013-09-22 17:45:00,52.3,45.0,30.19,NW,307,0.0,7.0,76,0.00,,---,0.01,VWS V13.01,2013-09-22 21:45:00,
2013-09-22 17:50:00,52.2,45.2,30.19,NW,307,0.0,7.0,77,0.00,,---,0.01,VWS V13.01,2013-09-22 21:50:00,
2013-09-22 17:55:00,52.3,45.3,30.19,NW,307,0.0,7.0,77,0.00,,---,0.01,VWS V13.01,2013-09-22 21:55:00,
2013-09-22 18:00:00,52.3,45.7,30.19,NW,307,1.0,1.0,78,0.00,,---,0.01,VWS V13.01,2013-09-22 22:00:00,
2013-09-22 18:05:00,52.2,45.6,30.20,NW,310,0.0,1.0,78,0.00,,---,0.01,VWS V13.01,2013-09-22 22:05:00,
2013-09-22 18:10:00,52.2,45.6,30.20,NW,311,0.0,1.0,78,0.00,,---,0.01,VWS V13.01,2013-09-22 22:10:00,
2013-09-22 18:16:00,52.1,45.5,30.20,NW,313,0.0,1.0,78,0.00,,---,0.01,VWS V13.01,2013-09-22 22:16:00,
2013-09-22 18:21:00,51.9,45.3,30.20,NW,313,0.0,1.0,78,0.00,,---,0.01,VWS V13.01,2013-09-22 22:21:00,
2013-09-22 18:26:00,51.8,45.5,30.20,NW,313,0.0,1.0,79,0.00,,---,0.01,VWS V13.01,2013-09-22 22:26:00,
2013-09-22 18:31:00,51.7,45.4,30.20,NW,313,0.0,0.0,79,0.00,,---,0.01,VWS V13.01,2013-09-22 22:31:00,
2013-09-22 18:36:00,51.6,45.6,30.20,NW,313,0.0,0.0,80,0.00,,---,0.01,VWS V13.01,2013-09-22 22:36:00,
2013-09-22 18:41:00,51.5,45.5,30.20,NW,313,0.0,0.0,80,0.00,,---,0.01,VWS V13.01,2013-09-22 22:41:00,
2013-09-22 18:46:00,51.5,45.9,30.20,NW,313,0.0,0.0,81,0.00,,---,0.01,VWS V13.01,2013-09-22 22:46:00,
2013-09-22 18:51:00,51.4,46.1,30.20,NW,314,0.0,0.0,82,0.00,,---,0.01,VWS V13.01,2013-09-22 22:51:00,
2013-09-22 18:56:00,51.2,45.9,30.20,NW,316,0.0,1.0,82,0.00,,---,0.01,VWS V13.01,2013-09-22 22:56:00,
2013-09-22 19:01:00,51.1,45.8,30.20,NW,315,0.0,0.0,82,0.00,,---,0.01,VWS V13.01,2013-09-22 23:01:00,
2013-09-22 19:07:00,51.0,45.7,30.20,NW,316,0.0,0.0,82,0.00,,---,0.01,VWS V13.01,2013-09-22 23:07:00,
2013-09-22 19:12:00,50.9,45.6,30.20,NW,316,0.0,0.0,82,0.00,,---,0.01,VWS V13.01,2013-09-22 23:12:00,
2013-09-22 19:17:00,50.8,45.5,30.20,NW,316,0.0,0.0,82,0.00,,---,0.01,VWS V13.01,2013-09-22 23:17:00,
2013-09-22 19:22:00,50.8,46.2,30.21,NW,315,0.0,0.0,84,0.00,,---,0.01,VWS V13.01,2013-09-22 23:22:00,
2013-09-22 19:27:00,50.7,45.7,30.21,NW,315,0.0,0.0,83,0.00,,---,0.01,VWS V13.01,2013-09-22 23:27:00,
2013-09-22 19:32:00,50.6,46.0,30.21,NW,316,0.0,0.0,84,0.00,,---,0.01,VWS V13.01,2013-09-22 23:32:00,
2013-09-22 19:37:00,50.6,46.3,30.21,NW,315,0.0,0.0,85,0.00,,---,0.01,VWS V13.01,2013-09-22 23:37:00,
2013-09-22 19:42:00,50.5,46.2,30.21,NW,315,0.0,0.0,85,0.00,,---,0.01,VWS V13.01,2013-09-22 23:42:00,
2013-09-22 19:47:00,50.3,46.6,30.21,NW,315,0.0,0.0,87,0.00,,---,0.01,VWS V13.01,2013-09-22 23:47:00,
2013-09-22 19:53:00,50.2,46.5,30.21,NW,316,0.0,0.0,87,0.00,,---,0.01,VWS V13.01,2013-09-22 23:53:00,
2013-09-22 19:58:00,50.0,46.6,30.22,NW,316,0.0,0.0,88,0.00,,---,0.01,VWS V13.01,2013-09-22 23:58:00,
2013-09-22 20:03:00,49.8,46.4,30.22,NW,315,0.0,0.0,88,0.00,,---,0.01,VWS V13.01,2013-09-23 00:03:00,
2013-09-22 20:08:00,49.6,46.5,30.23,NW,315,0.0,0.0,89,0.00,,---,0.01,VWS V13.01,2013-09-23 00:08:00,
2013-09-22 20:13:00,49.4,46.3,30.23,NW,315,0.0,0.0,89,0.00,,---,0.01,VWS V13.01,2013-09-23 00:13:00,
2013-09-22 20:18:00,49.3,46.2,30.23,NW,316,0.0,0.0,89,0.00,,---,0.01,VWS V13.01,2013-09-23 00:18:00,
2013-09-22 20:23:00,49.2,46.4,30.23,NW,316,0.0,0.0,90,0.00,,---,0.01,VWS V13.01,2013-09-23 00:23:00,
2013-09-22 20:29:00,49.2,46.7,30.24,NW,316,0.0,0.0,91,0.00,,---,0.01,VWS V13.01,2013-09-23 00:29:00,
2013-09-22 20:34:00,49.2,46.7,30.24,NW,316,0.0,0.0,91,0.00,,---,0.01,VWS V13.01,2013-09-23 00:34:00,
2013-09-22 20:39:00,49.2,46.7,30.24,NW,315,0.0,0.0,91,0.00,,---,0.01,VWS V13.01,2013-09-23 00:39:00,
2013-09-22 20:44:00,49.2,46.7,30.24,NW,315,0.0,0.0,91,0.00,,---,0.01,VWS V13.01,2013-09-23 00:44:00,
2013-09-22 20:49:00,49.1,46.6,30.24,NW,315,0.0,0.0,91,0.00,,---,0.01,VWS V13.01,2013-09-23 00:49:00,
2013-09-22 20:54:00,49.1,46.9,30.24,NW,316,0.0,0.0,92,0.00,,---,0.01,VWS V13.01,2013-09-23 00:54:00,
2013-09-22 20:59:00,49.1,46.9,30.25,NW,316,0.0,0.0,92,0.00,,---,0.01,VWS V13.01,2013-09-23 00:59:00,
2013-09-22 21:04:00,49.0,46.8,30.25,NW,316,0.0,0.0,92,0.00,,---,0.01,VWS V13.01,2013-09-23 01:04:00,
2013-09-22 21:10:00,49.0,46.8,30.25,NW,316,0.0,0.0,92,0.00,,---,0.01,VWS V13.01,2013-09-23 01:10:00,
2013-09-22 21:15:00,49.1,46.9,30.25,NW,315,0.0,0.0,92,0.00,,---,0.01,VWS V13.01,2013-09-23 01:15:00,
2013-09-22 21:20:00,49.2,47.3,30.25,NW,315,0.0,0.0,93,0.00,,---,0.01,VWS V13.01,2013-09-23 01:20:00,
2013-09-22 21:25:00,49.2,47.3,30.25,NW,315,0.0,0.0,93,0.00,,---,0.01,VWS V13.01,2013-09-23 01:25:00,
2013-09-22 21:30:00,49.2,47.3,30.25,NW,316,0.0,0.0,93,0.00,,---,0.01,VWS V13.01,2013-09-23 01:30:00,
2013-09-22 21:35:00,49.2,47.3,30.25,NW,315,0.0,0.0,93,0.00,,---,0.01,VWS V13.01,2013-09-23 01:35:00,
2013-09-22 21:40:00,49.1,46.9,30.25,NW,316,0.0,0.0,92,0.00,,---,0.01,VWS V13.01,2013-09-23 01:40:00,
2013-09-22 21:45:00,49.0,46.8,30.26,NW,315,0.0,0.0,92,0.00,,---,0.01,VWS V13.01,2013-09-23 01:45:00,
2013-09-22 21:50:00,49.1,47.2,30.26,NW,316,0.0,0.0,93,0.00,,---,0.01,VWS V13.01,2013-09-23 01:50:00,
2013-09-22 21:56:00,48.9,46.7,30.26,NW,316,0.0,0.0,92,0.00,,---,0.01,VWS V13.01,2013-09-23 01:56:00,
2013-09-22 22:01:00,48.9,46.1,30.26,NW,315,0.0,0.0,90,0.00,,---,0.01,VWS V13.01,2013-09-23 02:01:00,
2013-09-22 22:06:00,49.2,45.5,30.26,NW,316,0.0,1.0,87,0.00,,---,0.01,VWS V13.01,2013-09-23 02:06:00,
2013-09-22 22:11:00,49.4,45.4,30.26,NW,315,0.0,1.0,86,0.00,,---,0.01,VWS V13.01,2013-09-23 02:11:00,
2013-09-22 22:16:00,49.6,45.6,30.26,NW,315,0.0,1.0,86,0.00,,---,0.01,VWS V13.01,2013-09-23 02:16:00,
2013-09-22 22:21:00,49.7,45.1,30.26,NW,315,0.0,1.0,84,0.00,,---,0.01,VWS V13.01,2013-09-23 02:21:00,
2013-09-22 22:26:00,49.7,45.4,30.26,NW,316,0.0,1.0,85,0.00,,---,0.01,VWS V13.01,2013-09-23 02:26:00,
2013-09-22 22:31:00,49.7,46.3,30.26,NW,316,0.0,0.0,88,0.00,,---,0.01,VWS V13.01,2013-09-23 02:31:00,
2013-09-22 22:36:00,49.6,46.8,30.26,NW,315,0.0,1.0,90,0.00,,---,0.01,VWS V13.01,2013-09-23 02:36:00,
2013-09-22 22:42:00,49.4,46.3,30.26,NW,315,0.0,1.0,89,0.00,,---,0.01,VWS V13.01,2013-09-23 02:42:00,
2013-09-22 22:47:00,49.3,45.9,30.27,NW,315,0.0,1.0,88,0.00,,---,0.01,VWS V13.01,2013-09-23 02:47:00,
2013-09-22 22:52:00,49.4,45.4,30.27,NW,318,0.0,4.0,86,0.00,,---,0.01,VWS V13.01,2013-09-23 02:52:00,
2013-09-22 22:57:00,49.4,45.1,30.27,NW,318,0.0,4.0,85,0.00,,---,0.01,VWS V13.01,2013-09-23 02:57:00,
2013-09-22 23:02:00,49.5,45.2,30.27,NW,318,0.0,0.0,85,0.00,,---,0.01,VWS V13.01,2013-09-23 03:02:00,
2013-09-22 23:07:00,49.4,45.1,30.27,NW,318,0.0,1.0,85,0.00,,---,0.01,VWS V13.01,2013-09-23 03:07:00,
2013-09-22 23:13:00,49.4,45.1,30.27,NNE,19,0.0,4.0,85,0.00,,---,0.01,VWS V13.01,2013-09-23 03:13:00,
2013-09-22 23:18:00,49.4,45.1,30.27,NNE,22,0.0,4.0,85,0.00,,---,0.01,VWS V13.01,2013-09-23 03:18:00,
2013-09-22 23:23:00,49.3,45.0,30.27,NNE,33,1.0,4.0,85,0.00,,---,0.01,VWS V13.01,2013-09-23 03:23:00,
2013-09-22 23:28:00,49.2,45.2,30.27,NE,34,0.0,4.0,86,0.00,,---,0.01,VWS V13.01,2013-09-23 03:28:00,
2013-09-22 23:33:00,49.0,45.0,30.27,NE,44,0.0,1.0,86,0.00,,---,0.01,VWS V13.01,2013-09-23 03:33:00,
2013-09-22 23:38:00,48.8,44.8,30.27,ENE,68,0.0,1.0,86,0.00,,---,0.01,VWS V13.01,2013-09-23 03:38:00,
2013-09-22 23:43:00,48.7,44.7,30.27,ENE,78,0.0,1.0,86,0.00,,---,0.01,VWS V13.01,2013-09-23 03:43:00,
2013-09-22 23:48:00,48.5,44.8,30.28,ENE,78,0.0,1.0,87,0.00,,---,0.01,VWS V13.01,2013-09-23 03:48:00,
2013-09-22 23:54:00,48.4,44.7,30.27,East,101,0.0,7.0,87,0.00,,---,0.01,VWS V13.01,2013-09-23 03:54:00,
2013-09-22 23:59:00,48.3,44.6,30.27,East,101,0.0,7.0,87,0.00,,---,0.01,VWS V13.01,2013-09-23 03:59:00,